User: anonymous   Login
Location: Caltech
(34.1382°N, 118.1253°W)
Time: 22:31:59
(UTC-08:00)
Language:

Sapphire - Orbit

View from above orbital plane
View from above orbital plane
View from above satellite
View from above satellite

Ground track
Ground track

The orbit data is extracted from the following two-line orbital elements,

1 26932U 01043D   17324.57653567 -.00000019 +00000-0 +24539-4 0  9999
2 26932 067.0576 050.2406 0005778 245.5851 114.4647 14.30265344842664
Epoch (UTC): 20 November 2017 13:50:12
Eccentricity: 0.0005778
inclination: 67.0576°
perigee height: 787 km
apogee height: 795 km
right ascension of ascending node: 50.2406°
argument of perigee: 245.5851°
revolutions per day: 14.30265344
mean anomaly at epoch: 114.4647°
orbit number at epoch: 84266

The dashed part of the orbit path shows where the satellite is in the earth's shadow,  

DLR